status,avgMeasuredTime,avgSpeed,extID,medianMeasuredTime,TIMESTAMP,vehicleCount,_id,REPORT_ID
OK,53,57,820,53,2014-08-01T07:55:00,0,20746544,182683
OK,120,25,820,120,2014-08-01T08:00:00,3,20746875,182683
OK,143,21,820,143,2014-08-01T08:05:00,4,20747324,182683
OK,98,31,820,98,2014-08-01T08:10:00,10,20747697,182683
OK,98,31,820,98,2014-08-01T08:15:00,17,20748146,182683
OK,102,30,820,102,2014-08-01T08:20:00,11,20748595,182683
OK,124,24,820,124,2014-08-01T08:25:00,6,20749044,182683
OK,126,24,820,126,2014-08-01T08:30:00,7,20749493,182683
OK,122,25,820,122,2014-08-01T08:35:00,5,20749942,182683
OK,120,25,820,120,2014-08-01T08:40:00,4,20750391,182683
OK,130,23,820,130,2014-08-01T08:45:00,3,20750840,182683
OK,124,24,820,124,2014-08-01T08:50:00,8,20751289,182683
OK,121,25,820,121,2014-08-01T08:55:00,6,20751738,182683
OK,116,26,820,116,2014-08-01T09:00:00,1,20752187,182683
OK,116,26,820,116,2014-08-01T09:05:00,1,20752636,182683
OK,102,30,820,102,2014-08-01T09:10:00,4,20753085,182683
OK,104,29,820,104,2014-08-01T09:15:00,9,20753534,182683
OK,104,29,820,104,2014-08-01T09:20:00,7,20753983,182683
OK,127,24,820,127,2014-08-01T09:25:00,4,20754432,182683
OK,122,25,820,122,2014-08-01T09:30:00,5,20754881,182683
OK,122,25,820,122,2014-08-01T09:35:00,9,20755330,182683
OK,118,25,820,118,2014-08-01T09:40:00,9,20755779,182683
OK,101,30,820,101,2014-08-01T09:45:00,6,20756228,182683
OK,102,30,820,102,2014-08-01T09:50:00,3,20756677,182683
OK,129,23,820,129,2014-08-01T09:55:00,5,20757126,182683
OK,99,30,820,99,2014-08-01T10:00:00,6,20757575,182683
OK,125,24,820,125,2014-08-01T10:05:00,7,20758024,182683
OK,129,23,820,129,2014-08-01T10:10:00,4,20758473,182683
OK,94,32,820,94,2014-08-01T10:15:00,5,20758922,182683
OK,95,32,820,95,2014-08-01T10:20:00,11,20759371,182683
OK,115,26,820,115,2014-08-01T10:25:00,29,20759820,182683
OK,117,26,820,117,2014-08-01T10:30:00,27,20760269,182683
OK,117,26,820,117,2014-08-01T10:35:00,17,20760718,182683
OK,92,33,820,92,2014-08-01T10:40:00,10,20761167,182683
OK,121,25,820,121,2014-08-01T10:45:00,5,20761616,182683
OK,108,28,820,108,2014-08-01T10:50:00,9,20762065,182683
OK,117,26,820,117,2014-08-01T10:55:00,10,20762514,182683
OK,124,24,820,124,2014-08-01T11:00:00,8,20762963,182683
OK,117,26,820,117,2014-08-01T11:05:00,8,20763412,182683
OK,110,27,820,110,2014-08-01T11:10:00,6,20763861,182683
OK,110,27,820,110,2014-08-01T11:15:00,5,20764309,182683
OK,117,26,820,117,2014-08-01T11:20:00,7,20764758,182683
OK,117,26,820,117,2014-08-01T11:25:00,9,20765207,182683
OK,120,25,820,120,2014-08-01T11:30:00,4,20765656,182683
OK,121,25,820,121,2014-08-01T11:35:00,3,20766105,182683
OK,111,27,820,111,2014-08-01T11:40:00,9,20766554,182683
OK,100,30,820,100,2014-08-01T11:45:00,12,20767003,182683
OK,109,28,820,109,2014-08-01T11:50:00,23,20767452,182683
OK,108,28,820,108,2014-08-01T11:55:00,32,20767901,182683
OK,107,28,820,107,2014-08-01T12:00:00,19,20768350,182683
OK,123,24,820,123,2014-08-01T12:05:00,8,20768799,182683
OK,113,27,820,113,2014-08-01T12:10:00,4,20769248,182683
OK,88,34,820,88,2014-08-01T12:15:00,3,20769697,182683
OK,88,34,820,88,2014-08-01T12:20:00,3,20770146,182683
OK,118,25,820,118,2014-08-01T12:25:00,3,20770595,182683
OK,109,28,820,109,2014-08-01T12:30:00,5,20771044,182683
OK,107,28,820,107,2014-08-01T12:35:00,6,20771493,182683
OK,83,36,820,83,2014-08-01T12:40:00,6,20771942,182683
OK,61,50,820,61,2014-08-01T12:45:00,3,20772391,182683
OK,73,41,820,73,2014-08-01T12:50:00,1,20772840,182683
OK,58,52,820,58,2014-08-01T12:55:00,9,20773289,182683
OK,58,52,820,58,2014-08-01T13:00:00,11,20773738,182683
OK,56,54,820,56,2014-08-01T13:05:00,6,20774187,182683
OK,62,49,820,62,2014-08-01T13:10:00,6,20774636,182683
OK,67,45,820,67,2014-08-01T13:15:00,7,20775085,182683
OK,61,50,820,61,2014-08-01T13:20:00,8,20775534,182683
OK,62,49,820,62,2014-08-01T13:25:00,8,20775983,182683
OK,91,33,820,91,2014-08-01T13:30:00,9,20776432,182683
OK,57,53,820,57,2014-08-01T13:35:00,13,20776881,182683
OK,57,53,820,57,2014-08-01T13:40:00,11,20777330,182683
OK,79,38,820,79,2014-08-01T13:45:00,6,20777779,182683
OK,62,49,820,62,2014-08-01T13:50:00,4,20778228,182683
OK,67,45,820,67,2014-08-01T13:55:00,6,20778677,182683
OK,94,32,820,94,2014-08-01T14:00:00,7,20779126,182683
OK,88,34,820,88,2014-08-01T14:05:00,11,20779575,182683
OK,103,29,820,103,2014-08-01T14:10:00,15,20780024,182683
OK,117,26,820,117,2014-08-01T14:15:00,15,20780473,182683
OK,97,31,820,97,2014-08-01T14:20:00,14,20780922,182683
OK,88,34,820,88,2014-08-01T14:25:00,6,20781371,182683
OK,93,32,820,93,2014-08-01T14:30:00,4,20781820,182683
OK,46,66,820,46,2014-08-01T14:35:00,5,20782269,182683
OK,49,62,820,49,2014-08-01T14:40:00,6,20782718,182683
OK,57,53,820,57,2014-08-01T14:45:00,4,20783167,182683
OK,56,54,820,56,2014-08-01T14:50:00,3,20783616,182683
OK,65,47,820,65,2014-08-01T14:55:00,5,20784065,182683
OK,65,47,820,65,2014-08-01T15:00:00,3,20784514,182683
OK,59,51,820,59,2014-08-01T15:05:00,0,20784963,182683
OK,57,53,820,57,2014-08-01T15:10:00,2,20785412,182683
OK,60,51,820,60,2014-08-01T15:15:00,6,20785861,182683
OK,85,36,820,85,2014-08-01T15:20:00,9,20786310,182683
OK,90,34,820,90,2014-08-01T15:25:00,17,20786759,182683
OK,99,30,820,99,2014-08-01T15:30:00,21,20787208,182683
OK,79,38,820,79,2014-08-01T15:35:00,13,20787657,182683
OK,54,56,820,54,2014-08-01T15:40:00,5,20788106,182683
OK,55,55,820,55,2014-08-01T15:45:00,4,20788555,182683
OK,56,54,820,56,2014-08-01T15:50:00,2,20789004,182683
OK,56,54,820,56,2014-08-01T15:55:00,5,20789453,182683
OK,57,53,820,57,2014-08-01T16:00:00,4,20789902,182683
OK,74,41,820,74,2014-08-01T16:05:00,2,20790351,182683
OK,100,30,820,100,2014-08-01T16:10:00,2,20790800,182683
OK,104,29,820,104,2014-08-01T16:15:00,6,20791249,182683
OK,93,32,820,93,2014-08-01T16:20:00,6,20791698,182683
OK,119,25,820,119,2014-08-01T16:25:00,4,20792147,182683
OK,126,24,820,126,2014-08-01T16:30:00,2,20792596,182683
OK,124,24,820,124,2014-08-01T16:35:00,1,20793045,182683
OK,125,24,820,125,2014-08-01T16:40:00,3,20793494,182683
OK,119,25,820,119,2014-08-01T16:45:00,4,20793943,182683
OK,119,25,820,119,2014-08-01T16:50:00,5,20794392,182683
OK,121,25,820,121,2014-08-01T16:55:00,4,20794841,182683
OK,126,24,820,126,2014-08-01T17:00:00,1,20795290,182683
OK,98,31,820,98,2014-08-01T17:05:00,2,20795739,182683
OK,98,31,820,98,2014-08-01T17:10:00,2,20796188,182683
OK,98,31,820,98,2014-08-01T17:15:00,0,20796637,182683
OK,129,23,820,129,2014-08-01T17:20:00,1,20797086,182683
OK,129,23,820,129,2014-08-01T17:25:00,1,20797535,182683
OK,42,72,820,42,2014-08-01T17:30:00,1,20797984,182683
OK,128,23,820,128,2014-08-01T17:35:00,4,20798433,182683
OK,126,24,820,126,2014-08-01T17:40:00,5,20798882,182683
OK,96,31,820,96,2014-08-01T17:45:00,11,20799331,182683
OK,96,31,820,96,2014-08-01T17:50:00,15,20799780,182683
OK,100,30,820,100,2014-08-01T17:55:00,14,20800229,182683
OK,102,30,820,102,2014-08-01T18:00:00,9,20800678,182683
OK,103,29,820,103,2014-08-01T18:05:00,2,20801127,182683
OK,103,29,820,103,2014-08-01T18:10:00,0,20801576,182683
OK,113,27,820,113,2014-08-01T18:15:00,2,20802025,182683
OK,129,23,820,129,2014-08-01T18:20:00,4,20802474,182683
OK,128,23,820,128,2014-08-01T18:25:00,3,20802923,182683
OK,125,24,820,125,2014-08-01T18:30:00,3,20803372,182683
OK,125,24,820,125,2014-08-01T18:35:00,7,20803821,182683
OK,112,27,820,112,2014-08-01T18:40:00,8,20804270,182683
OK,96,31,820,96,2014-08-01T18:45:00,6,20804719,182683
OK,110,27,820,110,2014-08-01T18:50:00,7,20805168,182683
OK,109,28,820,109,2014-08-01T18:55:00,7,20805617,182683
OK,108,28,820,108,2014-08-01T19:00:00,2,20806066,182683
OK,88,34,820,88,2014-08-01T19:05:00,2,20806515,182683
OK,52,58,820,52,2014-08-01T19:10:00,3,20806964,182683
OK,76,40,820,76,2014-08-01T19:15:00,3,20807413,182683
OK,79,38,820,79,2014-08-01T19:20:00,3,20807862,182683
OK,118,25,820,118,2014-08-01T19:25:00,3,20808311,182683
OK,98,31,820,98,2014-08-01T19:30:00,2,20808760,182683
OK,79,38,820,79,2014-08-01T19:35:00,0,20809209,182683
OK,112,27,820,112,2014-08-01T19:40:00,6,20809658,182683
OK,106,28,820,106,2014-08-01T19:45:00,13,20810107,182683
OK,93,32,820,93,2014-08-01T19:50:00,7,20810556,182683
OK,67,45,820,67,2014-08-01T19:55:00,3,20811005,182683
OK,98,31,820,98,2014-08-01T22:00:00,0,20816734,182683
OK,69,44,820,69,2014-08-01T22:05:00,1,20817183,182683
OK,51,60,820,51,2014-08-02T00:00:00,0,20823173,182683
OK,51,60,820,51,2014-08-02T00:05:00,0,20823622,182683
OK,51,60,820,51,2014-08-02T00:10:00,0,20824071,182683
OK,56,54,820,56,2014-08-02T00:15:00,1,20824520,182683
OK,56,54,820,56,2014-08-02T00:20:00,0,20824969,182683
OK,56,54,820,56,2014-08-02T00:25:00,0,20825418,182683
OK,56,54,820,56,2014-08-02T00:30:00,0,20825867,182683
OK,56,54,820,56,2014-08-02T00:35:00,0,20826316,182683
OK,56,54,820,56,2014-08-02T00:40:00,0,20826765,182683
OK,56,54,820,56,2014-08-02T00:45:00,0,20827214,182683
OK,56,54,820,56,2014-08-02T00:50:00,0,20827663,182683
OK,56,54,820,56,2014-08-02T00:55:00,0,20828112,182683
OK,56,54,820,56,2014-08-02T01:00:00,0,20828561,182683
OK,56,54,820,56,2014-08-02T01:05:00,0,20829010,182683
OK,107,28,820,107,2014-08-02T01:10:00,1,20829459,182683
OK,107,28,820,107,2014-08-02T01:15:00,0,20829908,182683
OK,107,28,820,107,2014-08-02T01:20:00,0,20830357,182683
OK,99,30,820,99,2014-08-02T01:25:00,1,20830806,182683
OK,99,30,820,99,2014-08-02T01:30:00,0,20831255,182683
OK,106,28,820,106,2014-08-02T01:35:00,1,20831704,182683
OK,106,28,820,106,2014-08-02T01:40:00,1,20832153,182683
OK,50,61,820,50,2014-08-02T01:45:00,3,20832602,182683
OK,50,61,820,50,2014-08-02T01:50:00,3,20833051,182683
OK,46,66,820,46,2014-08-02T01:55:00,1,20833500,182683
OK,46,66,820,46,2014-08-02T02:00:00,1,20833949,182683
OK,46,66,820,46,2014-08-02T02:05:00,0,20834398,182683
OK,46,66,820,46,2014-08-02T02:10:00,0,20834847,182683
OK,46,66,820,46,2014-08-02T02:15:00,0,20835296,182683
OK,68,45,820,68,2014-08-02T02:20:00,1,20835745,182683
OK,68,45,820,68,2014-08-02T02:25:00,0,20836194,182683
OK,68,45,820,68,2014-08-02T02:30:00,0,20836643,182683
OK,68,45,820,68,2014-08-02T02:35:00,0,20837092,182683
OK,68,45,820,68,2014-08-02T02:40:00,0,20837541,182683
OK,68,45,820,68,2014-08-02T02:45:00,0,20837990,182683
OK,68,45,820,68,2014-08-02T02:50:00,0,20838439,182683
OK,68,45,820,68,2014-08-02T02:55:00,0,20838888,182683
OK,53,57,820,53,2014-08-02T03:00:00,1,20839337,182683
OK,53,57,820,53,2014-08-02T03:05:00,1,20839786,182683
OK,71,43,820,71,2014-08-02T03:10:00,1,20840235,182683
OK,71,43,820,71,2014-08-02T03:15:00,1,20840684,182683
OK,71,43,820,71,2014-08-02T03:20:00,0,20841133,182683
OK,71,43,820,71,2014-08-02T03:25:00,0,20841582,182683
OK,71,43,820,71,2014-08-02T03:30:00,0,20842031,182683
OK,71,43,820,71,2014-08-02T03:35:00,0,20842480,182683
OK,71,43,820,71,2014-08-02T03:40:00,0,20842929,182683
OK,71,43,820,71,2014-08-02T03:45:00,0,20843378,182683
OK,71,43,820,71,2014-08-02T03:50:00,0,20843827,182683
OK,71,43,820,71,2014-08-02T03:55:00,0,20844276,182683
OK,71,43,820,71,2014-08-02T04:20:00,0,20845722,182683
OK,71,43,820,71,2014-08-02T04:35:00,0,20846645,182683
OK,71,43,820,71,2014-08-02T04:45:00,0,20847287,182683
OK,71,43,820,71,2014-08-02T04:50:00,0,20847653,182683
OK,96,31,820,96,2014-08-02T05:50:00,0,20851173,182683
OK,96,31,820,96,2014-08-02T06:00:00,0,20851730,182683
OK,96,31,820,96,2014-08-02T06:05:00,0,20852179,182683
OK,96,31,820,96,2014-08-02T06:10:00,0,20852628,182683
OK,96,31,820,96,2014-08-02T06:15:00,0,20853077,182683
OK,96,31,820,96,2014-08-02T06:20:00,0,20853526,182683
OK,76,40,820,76,2014-08-02T06:25:00,1,20853975,182683
OK,76,40,820,76,2014-08-02T06:30:00,1,20854424,182683
OK,76,40,820,76,2014-08-02T06:35:00,0,20854873,182683
OK,76,40,820,76,2014-08-02T06:40:00,0,20855322,182683
OK,76,40,820,76,2014-08-02T06:45:00,0,20855771,182683
OK,118,25,820,118,2014-08-02T06:50:00,1,20856220,182683
OK,118,25,820,118,2014-08-02T06:55:00,0,20856669,182683
OK,118,25,820,118,2014-08-02T07:00:00,0,20857118,182683
OK,118,25,820,118,2014-08-02T07:05:00,0,20857567,182683
OK,122,25,820,122,2014-08-02T07:10:00,2,20858016,182683
OK,118,25,820,118,2014-08-02T07:15:00,3,20858465,182683
OK,48,63,820,48,2014-08-02T07:20:00,0,20858914,182683
OK,109,28,820,109,2014-08-02T07:25:00,1,20859363,182683
OK,109,28,820,109,2014-08-02T07:30:00,5,20859812,182683
OK,116,26,820,116,2014-08-02T07:35:00,4,20860261,182683
OK,109,28,820,109,2014-08-02T07:40:00,4,20860710,182683
OK,43,71,820,43,2014-08-02T07:45:00,1,20861159,182683
OK,43,71,820,43,2014-08-02T07:50:00,0,20861608,182683
OK,70,43,820,70,2014-08-02T07:55:00,3,20862057,182683
OK,70,43,820,70,2014-08-02T08:00:00,3,20862506,182683
OK,129,23,820,129,2014-08-02T08:05:00,0,20862955,182683
OK,115,26,820,115,2014-08-02T08:10:00,5,20863404,182683
OK,113,27,820,113,2014-08-02T08:15:00,11,20863853,182683
OK,114,26,820,114,2014-08-02T08:20:00,29,20864302,182683
OK,115,26,820,115,2014-08-02T08:25:00,23,20864751,182683
OK,114,26,820,114,2014-08-02T08:30:00,2,20865200,182683
OK,120,25,820,120,2014-08-02T08:35:00,2,20865649,182683
OK,112,27,820,112,2014-08-02T08:40:00,1,20866098,182683
OK,112,27,820,112,2014-08-02T08:45:00,0,20866547,182683
OK,97,31,820,97,2014-08-02T08:50:00,1,20866996,182683
OK,97,31,820,97,2014-08-02T08:55:00,1,20867445,182683
OK,125,24,820,125,2014-08-02T09:00:00,2,20867894,182683
OK,121,25,820,121,2014-08-02T09:05:00,3,20868343,182683
OK,51,60,820,51,2014-08-02T09:10:00,1,20868792,182683
OK,94,32,820,94,2014-08-02T09:15:00,3,20869241,182683
OK,76,40,820,76,2014-08-02T09:20:00,4,20869690,182683
OK,57,53,820,57,2014-08-02T09:25:00,5,20870139,182683
OK,55,55,820,55,2014-08-02T09:30:00,7,20870588,182683
OK,51,60,820,51,2014-08-02T09:35:00,2,20871037,182683
OK,56,54,820,56,2014-08-02T09:40:00,1,20871486,182683
OK,56,54,820,56,2014-08-02T09:45:00,1,20871935,182683
OK,56,54,820,56,2014-08-02T09:50:00,0,20872384,182683
OK,53,57,820,53,2014-08-02T09:55:00,2,20872833,182683
OK,72,42,820,72,2014-08-02T10:00:00,4,20873282,182683
OK,63,48,820,63,2014-08-02T10:05:00,3,20873731,182683
OK,97,31,820,97,2014-08-02T10:10:00,5,20874180,182683
OK,97,31,820,97,2014-08-02T10:15:00,16,20874629,182683
OK,106,28,820,106,2014-08-02T10:20:00,22,20875078,182683
OK,108,28,820,108,2014-08-02T10:25:00,19,20875527,182683
OK,92,33,820,92,2014-08-02T10:30:00,12,20875976,182683
OK,57,53,820,57,2014-08-02T10:35:00,5,20876425,182683
OK,63,48,820,63,2014-08-02T10:40:00,3,20876874,182683
OK,89,34,820,89,2014-08-02T10:45:00,5,20877323,182683
OK,81,37,820,81,2014-08-02T10:50:00,5,20877772,182683
OK,56,54,820,56,2014-08-02T10:55:00,1,20878221,182683
OK,95,32,820,95,2014-08-02T11:00:00,1,20878670,182683
OK,62,49,820,62,2014-08-02T11:05:00,3,20879119,182683
OK,62,49,820,62,2014-08-02T11:10:00,3,20879568,182683
OK,63,48,820,63,2014-08-02T11:15:00,5,20880017,182683
OK,59,51,820,59,2014-08-02T11:20:00,6,20880466,182683
OK,56,54,820,56,2014-08-02T11:25:00,3,20880915,182683
OK,51,60,820,51,2014-08-02T11:30:00,2,20881364,182683
OK,59,51,820,59,2014-08-02T11:35:00,3,20881813,182683
OK,55,55,820,55,2014-08-02T11:40:00,6,20882262,182683
OK,62,49,820,62,2014-08-02T11:45:00,6,20882711,182683
OK,61,50,820,61,2014-08-02T11:50:00,3,20883160,182683
OK,87,35,820,87,2014-08-02T11:55:00,13,20883609,182683
OK,69,44,820,69,2014-08-02T12:00:00,32,20884058,182683
OK,82,37,820,82,2014-08-02T12:05:00,43,20884507,182683
OK,84,36,820,84,2014-08-02T12:10:00,28,20884956,182683
OK,59,51,820,59,2014-08-02T12:15:00,6,20885405,182683
OK,83,36,820,83,2014-08-02T12:20:00,4,20885854,182683
OK,60,51,820,60,2014-08-02T12:25:00,3,20886303,182683
OK,52,58,820,52,2014-08-02T12:30:00,0,20886752,182683
OK,55,55,820,55,2014-08-02T12:35:00,3,20887201,182683
OK,140,21,820,140,2014-08-02T12:40:00,6,20887650,182683
OK,135,22,820,135,2014-08-02T12:45:00,6,20888099,182683
OK,125,24,820,125,2014-08-02T12:50:00,3,20888548,182683
OK,78,39,820,78,2014-08-02T12:55:00,4,20888997,182683
OK,106,28,820,106,2014-08-02T13:00:00,5,20889446,182683
OK,116,26,820,116,2014-08-02T13:05:00,3,20889895,182683
OK,116,26,820,116,2014-08-02T13:10:00,6,20890344,182683
OK,118,25,820,118,2014-08-02T13:15:00,6,20890793,182683
OK,127,24,820,127,2014-08-02T13:20:00,6,20891242,182683
OK,133,23,820,133,2014-08-02T13:25:00,4,20891691,182683
OK,134,22,820,134,2014-08-02T13:30:00,3,20892140,182683
OK,130,23,820,130,2014-08-02T13:35:00,5,20892589,182683
OK,129,23,820,129,2014-08-02T13:40:00,4,20893038,182683
OK,82,37,820,82,2014-08-02T13:45:00,4,20893487,182683
OK,88,34,820,88,2014-08-02T13:50:00,10,20893936,182683
OK,101,30,820,101,2014-08-02T13:55:00,25,20894385,182683
OK,104,29,820,104,2014-08-02T14:00:00,22,20894834,182683
OK,102,30,820,102,2014-08-02T14:05:00,7,20895283,182683
OK,98,31,820,98,2014-08-02T14:10:00,6,20895732,182683
OK,98,31,820,98,2014-08-02T14:15:00,4,20896181,182683
OK,121,25,820,121,2014-08-02T14:20:00,3,20896630,182683
OK,123,24,820,123,2014-08-02T14:25:00,7,20897079,182683
OK,126,24,820,126,2014-08-02T14:30:00,4,20897528,182683
OK,94,32,820,94,2014-08-02T14:35:00,2,20897977,182683
OK,48,63,820,48,2014-08-02T14:40:00,1,20898426,182683
OK,118,25,820,118,2014-08-02T14:45:00,2,20898875,182683
OK,118,25,820,118,2014-08-02T14:50:00,3,20899324,182683
OK,114,26,820,114,2014-08-02T14:55:00,4,20899773,182683
OK,127,24,820,127,2014-08-02T15:00:00,4,20900222,182683
OK,113,27,820,113,2014-08-02T15:05:00,4,20900671,182683
OK,108,28,820,108,2014-08-02T15:10:00,4,20901120,182683
OK,122,25,820,122,2014-08-02T15:15:00,7,20901569,182683
OK,122,25,820,122,2014-08-02T15:20:00,7,20902018,182683
OK,119,25,820,119,2014-08-02T15:25:00,3,20902467,182683
OK,111,27,820,111,2014-08-02T15:30:00,3,20902916,182683
OK,112,27,820,112,2014-08-02T15:35:00,8,20903365,182683
OK,119,25,820,119,2014-08-02T15:40:00,9,20903814,182683
OK,96,31,820,96,2014-08-02T15:45:00,13,20904263,182683
OK,109,28,820,109,2014-08-02T15:50:00,15,20904712,182683
OK,120,25,820,120,2014-08-02T15:55:00,6,20905161,182683
OK,134,22,820,134,2014-08-02T16:00:00,3,20905610,182683
OK,125,24,820,125,2014-08-02T16:05:00,4,20906059,182683
OK,93,32,820,93,2014-08-02T16:10:00,4,20906508,182683
OK,118,25,820,118,2014-08-02T16:15:00,2,20906957,182683
OK,92,33,820,92,2014-08-02T16:20:00,1,20907406,182683
OK,101,30,820,101,2014-08-02T16:25:00,3,20907855,182683
OK,105,29,820,105,2014-08-02T16:30:00,4,20908304,182683
OK,135,22,820,135,2014-08-02T16:35:00,1,20908753,182683
OK,118,25,820,118,2014-08-02T16:40:00,1,20909202,182683
OK,122,25,820,122,2014-08-02T16:45:00,2,20909651,182683
OK,126,24,820,126,2014-08-02T16:50:00,1,20910100,182683
OK,126,24,820,126,2014-08-02T16:55:00,0,20910549,182683
OK,124,24,820,124,2014-08-02T17:00:00,3,20910998,182683
OK,133,23,820,133,2014-08-02T17:05:00,4,20911447,182683
OK,110,27,820,110,2014-08-02T17:10:00,12,20911896,182683
OK,100,30,820,100,2014-08-02T17:15:00,13,20912345,182683
OK,68,45,820,68,2014-08-02T17:20:00,8,20912794,182683
OK,77,39,820,77,2014-08-02T17:25:00,2,20913243,182683
OK,38,80,820,38,2014-08-02T17:30:00,0,20913692,182683
OK,130,23,820,130,2014-08-02T17:35:00,3,20914141,182683
OK,134,22,820,134,2014-08-02T17:40:00,2,20914590,182683
OK,138,22,820,138,2014-08-02T17:45:00,0,20915039,182683
OK,108,28,820,108,2014-08-02T17:50:00,2,20915488,182683
OK,108,28,820,108,2014-08-02T17:55:00,2,20915937,182683
OK,67,45,820,67,2014-08-02T18:00:00,1,20916386,182683
OK,79,38,820,79,2014-08-02T18:05:00,2,20916835,182683
OK,75,40,820,75,2014-08-02T18:10:00,2,20917284,182683
OK,126,24,820,126,2014-08-02T18:15:00,1,20917733,182683
OK,131,23,820,131,2014-08-02T18:20:00,3,20918182,182683
OK,132,23,820,132,2014-08-02T18:25:00,2,20918631,182683
OK,135,22,820,135,2014-08-02T18:30:00,2,20919080,182683
OK,135,22,820,135,2014-08-02T18:35:00,2,20919529,182683
OK,116,26,820,116,2014-08-02T18:40:00,0,20919978,182683
OK,116,26,820,116,2014-08-02T18:45:00,0,20920427,182683
OK,116,26,820,116,2014-08-02T18:50:00,0,20920876,182683
OK,116,26,820,116,2014-08-02T18:55:00,0,20921325,182683
OK,85,36,820,85,2014-08-02T19:00:00,4,20921774,182683
OK,91,33,820,91,2014-08-02T19:05:00,9,20922223,182683
OK,91,33,820,91,2014-08-02T19:10:00,8,20922672,182683
OK,104,29,820,104,2014-08-02T19:15:00,3,20923121,182683
OK,116,26,820,116,2014-08-02T19:20:00,2,20923570,182683
OK,117,26,820,117,2014-08-02T19:25:00,3,20924019,182683
OK,116,26,820,116,2014-08-02T19:30:00,2,20924468,182683
OK,97,31,820,97,2014-08-02T19:35:00,4,20924917,182683
OK,100,30,820,100,2014-08-02T19:40:00,7,20925366,182683
OK,108,28,820,108,2014-08-02T19:45:00,4,20925815,182683
OK,120,25,820,120,2014-08-02T19:50:00,3,20926264,182683
OK,124,24,820,124,2014-08-02T19:55:00,4,20926713,182683
OK,129,23,820,129,2014-08-02T20:00:00,3,20927162,182683
OK,117,26,820,117,2014-08-02T20:05:00,3,20927611,182683
OK,82,37,820,82,2014-08-02T20:10:00,2,20928060,182683
OK,44,69,820,44,2014-08-02T20:15:00,0,20928509,182683
OK,44,69,820,44,2014-08-02T20:20:00,0,20928958,182683
OK,44,69,820,44,2014-08-02T20:25:00,0,20929407,182683
OK,44,69,820,44,2014-08-02T20:30:00,0,20929856,182683
OK,170,18,820,170,2014-08-02T20:35:00,2,20930305,182683
OK,119,25,820,119,2014-08-02T20:40:00,16,20930754,182683
OK,104,29,820,104,2014-08-02T20:45:00,16,20931203,182683
OK,82,37,820,82,2014-08-02T20:50:00,3,20931652,182683
OK,61,50,820,61,2014-08-02T20:55:00,3,20932101,182683
OK,127,24,820,127,2014-08-02T21:00:00,0,20932550,182683
OK,104,29,820,104,2014-08-02T21:05:00,2,20932999,182683
OK,88,34,820,88,2014-08-02T21:10:00,3,20933448,182683
OK,58,52,820,58,2014-08-02T21:15:00,2,20933897,182683
OK,50,61,820,50,2014-08-02T21:20:00,1,20934346,182683
OK,84,36,820,84,2014-08-02T21:25:00,2,20934795,182683
OK,110,27,820,110,2014-08-02T21:30:00,3,20935244,182683
OK,169,18,820,169,2014-08-02T21:35:00,1,20935693,182683
OK,54,56,820,54,2014-08-02T21:40:00,1,20936142,182683
OK,104,29,820,104,2014-08-02T21:45:00,2,20936591,182683
OK,104,29,820,104,2014-08-02T21:50:00,4,20937040,182683
OK,83,36,820,83,2014-08-02T21:55:00,2,20937489,182683
OK,47,65,820,47,2014-08-02T22:00:00,0,20937938,182683
OK,47,65,820,47,2014-08-02T22:05:00,0,20938387,182683
OK,47,65,820,47,2014-08-02T22:10:00,0,20938836,182683
OK,115,26,820,115,2014-08-02T22:15:00,1,20939285,182683
OK,115,26,820,115,2014-08-02T22:20:00,1,20939734,182683
OK,115,26,820,115,2014-08-02T22:25:00,0,20940183,182683
OK,129,23,820,129,2014-08-02T22:30:00,1,20940632,182683
OK,129,23,820,129,2014-08-02T22:35:00,1,20941081,182683
OK,129,23,820,129,2014-08-02T22:40:00,0,20941530,182683
OK,129,23,820,129,2014-08-02T22:45:00,0,20941979,182683
OK,57,53,820,57,2014-08-02T22:50:00,1,20942428,182683
OK,76,40,820,76,2014-08-02T22:55:00,2,20942877,182683
OK,95,32,820,95,2014-08-02T23:00:00,1,20943326,182683
OK,74,41,820,74,2014-08-02T23:10:00,1,20943775,182683
OK,74,41,820,74,2014-08-02T23:15:00,1,20944224,182683
OK,235,13,820,235,2014-08-02T23:20:00,1,20944673,182683
OK,235,13,820,235,2014-08-02T23:25:00,1,20945122,182683
OK,235,13,820,235,2014-08-02T23:30:00,0,20945571,182683
OK,235,13,820,235,2014-08-02T23:35:00,0,20946020,182683
OK,235,13,820,235,2014-08-02T23:40:00,0,20946469,182683
OK,235,13,820,235,2014-08-02T23:45:00,0,20946918,182683
OK,49,62,820,49,2014-08-02T23:50:00,1,20947367,182683
OK,49,62,820,49,2014-08-02T23:55:00,1,20947816,182683
OK,49,62,820,49,2014-08-03T00:00:00,0,20948265,182683
OK,49,62,820,49,2014-08-03T00:05:00,0,20948714,182683
OK,49,62,820,49,2014-08-03T00:10:00,0,20949163,182683
OK,49,62,820,49,2014-08-03T00:15:00,0,20949611,182683
OK,53,57,820,53,2014-08-03T00:20:00,2,20950060,182683
OK,59,51,820,59,2014-08-03T00:25:00,3,20950509,182683
OK,84,36,820,84,2014-08-03T00:30:00,2,20950958,182683
OK,83,36,820,83,2014-08-03T00:35:00,2,20951407,182683
OK,114,26,820,114,2014-08-03T00:40:00,1,20951856,182683
OK,101,30,820,101,2014-08-03T00:45:00,2,20952305,182683
OK,78,39,820,78,2014-08-03T00:50:00,5,20952754,182683